カタログに戻る

ORBCOMM FM 34

運用中通信LEO
NORAD 25986·PAYLOAD·🇺🇸 United States

打ち上げ Dec 4, 1999 から Cape Canaveral Space Force Station

Loading…

次のパス (今後24時間)

TLE

最新Source: Space-Track

元期: Sep 14, 2026, 14:45 UTC

1 25986U 99065G   26257.61515149  .00000436  00000-0  18924-3 0  9993
2 25986  45.0381 104.5342 0004427  94.1332 266.0023 14.38057811400293

AllMySatでORBCOMM FM 34をリアルタイム追跡

Download on the App Store